KARBKSBP

Guest
Details From KARB - Ann Arbor Muni
To KSBP - San Luis Co Rgnl
Flight Number -
Tags decoded
Created
Modified
Stats Distance 1,764 nm / 3,267 km
Max Altitude 0 ft / 0 m
Waypoints 2
Social Downloads 1
Likes 0
Share VATSIM

Download

Looking for another format? Having issues loading an existing format? Contact us
Advertisement - Login to hide

Notes

Requested: KARB KSBP

Route

KARB KSBP

ID Type Via Altitude Latitude Longitude Leg Dist Tot Dist Heading (true) Name
O KARB APT - 0 ft / 0 m 42.22297˚ -83.74570˚ - 0 nm - Ann Arbor Muni
O KSBP APT - 0 ft / 0 m 35.23714˚ -120.64346˚ 1764 nm 1764 nm 269° / 245° San Luis Co Rgnl

Altitude Profile

Advertisement - Login to hide

Weather


0- 5 10 15 20 25 30 35+ Temperature / ° C

Clouds and Precipitation
Forecast for 2018-05-26 00:00 UTC. Updated 5 hours ago

Ground ~20,000 ft ~40,000 ft Winds

KARB

Details ICAO KARB (ARB)
Name Ann Arbor Muni
Region United States
Timezone America/Detroit (UTC-4.0)
Stats Elevation 839 ft / 256 m (AMSL)
Location 42.222969° -83.745698°
Runways 2
Magnetic Variation 7.020° W

METAR

KARB 260353Z AUTO 00000KT 10SM CLR 16/14 A2981 RMK AO2 SLP090 T01610144

Decode

TAF

Not found

Departure Runways

ID Width Length Bearing (true) Bearing (mag) Surface Threshold Offset Overrun Length
06 75 ft / 23 m 3,501 ft / 1,067 m 54.42° 61.44° Concrete 0 ft / 0 m 0 ft / 0 m
12 112 ft / 34 m 2,796 ft / 852 m 122.28° 129.30° Grass 0 ft / 0 m 0 ft / 0 m
24 75 ft / 23 m 3,501 ft / 1,067 m 234.43° 241.45° Concrete 0 ft / 0 m 0 ft / 0 m
30 112 ft / 34 m 2,796 ft / 852 m 302.28° 309.30° Grass 0 ft / 0 m 0 ft / 0 m

KSBP

Details ICAO KSBP (SBP)
Name San Luis Co Rgnl
Region United States
Timezone America/Los_Angeles (UTC-7.0)
Stats Elevation 212 ft / 65 m (AMSL)
Location 35.237141° -120.643460°
Runways 2
Magnetic Variation 12.638° E

METAR

KSBP 260356Z AUTO 30006KT 10SM FEW019 13/11 A3011 RMK AO2 SLP195 T01280106

Decode

TAF

TAF AMD KSBP 260308Z 2603/2624 31008KT P6SM SCT022 BKN040 FM260430 VRB03KT P6SM BKN017 OVC035 FM261600 32006KT P6SM SCT020 SCT040 FM262100 31017G25KT P6SM FEW040

Decode

Destination Runways

ID Width Length Bearing (true) Bearing (mag) Surface Threshold Offset Overrun Length
07 98 ft / 30 m 2,522 ft / 769 m 89.79° 77.15° Asphalt 0 ft / 0 m 0 ft / 0 m
11 151 ft / 46 m 6,106 ft / 1,861 m 124.87° 112.23° Asphalt 801 ft / 244 m 600 ft / 183 m
25 98 ft / 30 m 2,522 ft / 769 m 269.80° 257.16° Asphalt 0 ft / 0 m 0 ft / 0 m
29 151 ft / 46 m 6,106 ft / 1,861 m 304.88° 292.24° Asphalt 499 ft / 152 m 600 ft / 183 m

Approach Navaids

Runway Type Ident Frequency Range Bearing (true) Bearing (mag) Slope Elevation
11 Localiser ISBP 109.70 MHz 18 nm / 33 km 125.17° 112.53° - 206 ft / 63 m (AMSL)
11 Glidescope ISBP 109.70 MHz 10 nm / 19 km 124.87° 112.23° 3.00° 172 ft / 52 m (AMSL)